[[{"header":{"parameterUnit":"m.s-1","parameterCategory":1,"la1":30.2991,"la2":30.254,"lo1":-89.0895,"lo2":-89.0444,"dy":0.0017,"dx":0.0017,"nx":28,"ny":28,"refTime":"2023-09-20T21:00:00:Z","depth":0,"parameterNumber":2,"parameterNumberName":"U-component_of_WINDS"},"data":[0,0,0,0,0,0,0,0,0,0,0,0,0,0,0,0,0,0,0,0,0,0,0,0,0,0,0,0,0,0,0,0,0,0,0,0,0,0,0,0,0,0,0,0,0,0,0,0,0,0,0,0,0,0,0,0,0,0,-4.711,-4.7111,0,-4.7184,-4.7184,-4.7185,-4.705,-4.7046,-4.7041,-4.7037,-4.7114,-4.712,-4.7126,0,0,0,0,0,0,0,0,0,0,0,0,0,-4.6854,-4.686,-4.711,-4.7111,-4.7112,-4.7183,-4.7184,-4.7185,-4.7051,-4.7046,-4.704,-4.7035,-4.7111,-4.7119,-4.7126,0,0,0,0,0,0,0,0,0,0,0,0,0,-4.695,-4.6861,-4.711,-4.7054,-4.7049,-4.7183,-4.7184,-4.7186,-4.7052,-4.7046,-4.7039,-4.7033,-4.7109,-4.7118,-4.7127,-4.732,0,0,-4.7156,-4.716,0,0,0,0,0,0,0,0,-4.6945,-4.696,-4.7061,-4.7058,-4.7053,-4.7101,-4.7122,-4.7231,-4.7054,-4.7051,-4.7037,-4.7029,-4.7115,-4.7123,-4.7152,-4.7323,-4.7327,-4.7157,-4.7162,-4.7166,-4.7169,0,0,0,0,0,0,0,-4.6939,-4.6956,-4.7139,-4.7063,-4.7058,-4.7025,-4.7031,-4.7142,-4.712,-4.7051,-4.7041,-4.7052,-4.7111,-4.7143,-4.7153,-4.7328,-4.7156,-4.7165,-4.717,-4.7174,-4.766,-4.7667,0,0,0,0,0,0,-4.6939,-4.6951,-4.7137,-4.7141,-4.6981,-4.7035,-4.7042,-4.7092,-4.7118,-4.7116,-4.7058,-4.7045,-4.7131,-4.7142,-4.7155,-4.7381,-4.7166,-4.7175,-4.718,-4.7653,-4.7662,-4.767,0,0,0,0,0,0,-4.6934,-4.6957,-4.7134,-4.7044,-4.7064,-4.7046,-4.7104,-4.7097,-4.7129,-4.7123,-4.7119,-4.7094,-4.7126,-4.7142,-4.728,-4.7382,-4.7179,-4.7188,-4.7645,-4.7656,-4.7666,-4.7837,0,0,0,0,0,0,-4.6927,-4.6956,-4.7029,-4.7046,-4.7069,-4.7258,-4.7111,-4.7104,-4.7145,-4.713,-4.7156,-4.7154,-4.7122,-4.7266,-4.7289,-4.7391,-4.7195,-4.7635,-4.765,-4.7662,-4.7822,-4.7853,-4.7879,0,0,0,0,0,-4.6918,-4.7074,-4.7033,-4.7056,-4.716,-4.7264,-4.7277,-4.7236,-4.7154,-4.7227,-4.7224,-4.7154,-4.7368,-4.7282,-4.7306,-4.7413,-4.7629,-4.7645,-4.7661,-4.781,-4.7847,-4.7878,0,0,0,0,0,0,-4.707,-4.7076,-4.703,-4.7196,-4.7231,-4.7241,-4.7332,-4.7277,-4.7335,-4.7318,-4.7265,-4.7272,-4.7421,-4.743,-4.7335,-4.76,-4.7484,-4.7506,-4.7589,-4.7624,-4.7651,-4.7646,-4.7203,0,0,0,0,0,-4.7122,-4.7206,-4.7207,-4.7353,-4.7373,-4.735,-4.7394,-4.7359,-4.7393,-4.7407,-4.7413,-4.7449,-4.7523,-4.7574,-4.7643,-4.7823,-4.7826,-4.7908,-4.7937,-4.796,-4.7979,-4.8075,-4.8111,-4.7724,-4.7724,-4.7724,0,0,-4.7232,-4.7245,-4.7302,-4.7384,-4.7407,-4.7495,-4.7363,-4.7462,-4.7527,-4.7422,-4.7552,-4.7558,-4.7594,-4.7754,-4.7825,-4.7767,-4.8087,-4.7981,-4.7999,-4.8006,-4.8096,-4.8132,-4.8165,-4.7735,-4.7733,-4.7731,0,0,-4.7476,-4.7496,-4.7619,-4.7645,-4.768,-4.7664,-4.7694,-4.7713,-4.7713,-4.7843,-4.7766,-4.7842,-4.7972,-4.8001,-4.8033,-4.8289,-4.8226,-4.8312,-4.846,-4.8553,-4.8584,-4.8611,-4.8702,-4.8735,-4.8332,-4.8333,-4.8333,0,-4.7608,-4.7738,-4.769,-4.7794,-4.7833,-4.7741,-4.7866,-4.7893,-4.795,-4.7979,-4.7913,-4.8074,-4.8092,-4.8257,-4.8319,-4.8348,-4.8381,-4.8309,-4.8583,-4.861,-4.8634,-4.872,-4.8754,-4.8343,-4.8342,-4.8341,-4.834,0,-4.7898,-4.7989,-4.8085,-4.8141,-4.819,-4.8305,-4.8275,-4.833,-4.8291,-4.8282,-4.8416,-4.8434,-4.8504,-4.8541,-4.8504,-4.8701,-4.8664,-4.8592,-4.8474,-4.8682,-4.8762,-4.8795,-4.8357,-4.8354,-4.8351,-4.8348,0,0,-4.824,-4.8268,-4.8304,-4.8329,-4.8361,-4.8431,-4.8541,-4.8609,-4.8658,-4.87,-4.8791,-4.8904,-4.8837,-4.8873,-4.8839,-4.8921,-4.9122,-4.8838,-4.8838,-4.889,-4.934,-4.9394,-4.9433,-4.9081,-4.9087,-4.9092,-4.9336,0,-4.8482,-4.8672,-4.8632,-4.8818,-4.8901,-4.8815,-4.8911,-4.8941,-4.8936,-4.9006,-4.8999,-4.908,-4.8986,-4.9007,-4.9085,-4.9081,-4.9211,-4.9063,-4.9165,-4.9169,-4.9158,-4.9474,-4.9532,-4.9762,-4.9367,-4.9373,-4.9377,0,-4.8791,-4.8844,-4.9038,-4.9057,-4.909,-4.9177,-4.9236,-4.9304,-4.9337,-4.9327,-4.9368,-4.9318,-4.9427,-4.9308,-4.9458,-4.9358,-4.9397,-4.9402,-4.941,-4.9417,-4.9285,-4.949,-4.9834,-4.9869,-4.9425,-4.9421,-4.9418,0,-4.902,-4.9141,-4.9272,-4.9296,-4.9321,-4.9384,-4.9397,-4.9423,-4.9467,-4.9519,-4.9547,-4.9612,-4.9647,-4.9699,-4.9667,-4.9584,-4.9822,-4.9701,-4.9817,-4.9818,-4.9871,-4.9868,-5.0226,-4.9898,-4.9897,-4.9896,-4.9896,0,-4.9295,-4.9417,-4.9375,-4.9456,-4.959,-4.9544,-4.9678,-4.9681,-4.9705,-4.9785,-4.9715,-4.9792,-4.9746,-4.9819,-4.9795,-4.9923,-4.9939,-4.9934,-4.9927,-4.9941,-4.9941,-4.9965,-4.9948,-4.9905,-4.9903,-4.9902,-4.99,0,-4.9574,-4.9551,-4.9689,-4.9701,-4.9707,-4.9805,-4.9816,-4.9891,-4.988,-4.9983,-5.0004,-4.9987,-5.0069,-5.0043,-5.0132,-5.0116,-5.0278,-5.0249,-5.0267,-5.0259,-5.0377,-5.0366,-5.0762,-5.0812,-5.0452,-5.0456,-5.0459,0,-4.9751,-4.9842,-4.9865,-4.9913,-4.9932,-5.0011,-5.0055,-5.0012,-5.0061,-5.0105,-5.0176,-5.0252,-5.031,-5.0446,-5.0442,-5.051,-5.0482,-5.0616,-5.0492,-5.0503,-5.0484,-5.0478,-5.0487,-5.0641,-5.0645,-5.0649,-5.0652,0,-5.0067,-5.0051,-5.0117,-5.018,-5.0234,-5.0281,-5.0322,-5.0366,-5.0326,-5.0385,-5.0468,-5.0513,-5.0604,-5.068,-5.0742,-5.0755,-5.0698,-5.0691,-5.0721,-5.0736,-5.0742,-5.074,-5.0334,-5.0682,-5.0679,-5.0677,-5.0675,-5.0674,-5.0299,-5.0377,-5.0404,-5.048,-5.0506,-5.0546,-5.0618,-5.0615,-5.0684,-5.0754,-5.0725,-5.0821,-5.0851,-5.0927,-5.0949,-5.1023,-5.0972,-5.1016,-5.1027,-5.1039,-5.1053,-5.0731,-5.1035,-5.1034,-5.1033,-5.1032,-5.1031,0,-5.0611,-5.0624,-5.0695,-5.0754,-5.0814,-5.0754,-5.0796,-5.085,-5.0935,-5.0968,-5.1027,-5.1123,-5.1196,-5.1198,-5.1267,-5.1326,-5.1301,-5.1346,-5.1341,-5.1345,-5.1096,-5.1062,-5.1365,-5.1365,-5.1365,-5.1364,-5.1364,-5.1364,-5.078,-5.0908,-5.0895,-5.1035,-5.1047,-5.114,-5.117,-5.1206,-5.1232,-5.1342,-5.1402,-5.1403,-5.1423,-5.1493,-5.1558,-5.1556,-5.1585,-5.1639,-5.1628,-5.1395,-5.1362,-5.1331,-5.1299,-5.1646,-5.1646,-5.1871,-5.1873,-5.1874]},{"header":{"parameterUnit":"m.s-1","parameterCategory":1,"la1":30.2991,"la2":30.254,"lo1":-89.0895,"lo2":-89.0444,"dy":0.0017,"dx":0.0017,"nx":28,"ny":28,"refTime":"2023-09-20T21:00:00:Z","depth":0,"parameterNumber":3,"parameterNumberName":"V-component_of_WINDS"},"data":[0,0,0,0,0,0,0,0,0,0,0,0,0,0,0,0,0,0,0,0,0,0,0,0,0,0,0,0,0,0,0,0,0,0,0,0,0,0,0,0,0,0,0,0,0,0,0,0,0,0,0,0,0,0,0,0,0,0,-2.7673,-2.7673,0,-2.7684,-2.7684,-2.7684,-2.7661,-2.766,-2.766,-2.7659,-2.7669,-2.767,-2.7671,0,0,0,0,0,0,0,0,0,0,0,0,0,-2.763,-2.7631,-2.7673,-2.7673,-2.7673,-2.7684,-2.7684,-2.7684,-2.7661,-2.766,-2.766,-2.7659,-2.7669,-2.767,-2.7671,0,0,0,0,0,0,0,0,0,0,0,0,0,-2.7646,-2.7632,-2.7673,-2.7663,-2.7662,-2.7684,-2.7684,-2.7684,-2.7662,-2.766,-2.7659,-2.7658,-2.7668,-2.767,-2.7671,-2.7702,0,0,-2.7676,-2.7676,0,0,0,0,0,0,0,0,-2.7645,-2.7647,-2.7665,-2.7664,-2.7663,-2.767,-2.7673,-2.769,-2.7662,-2.7662,-2.7659,-2.7658,-2.767,-2.7671,-2.7676,-2.7703,-2.7703,-2.7676,-2.7677,-2.7677,-2.7678,0,0,0,0,0,0,0,-2.7644,-2.7647,-2.7677,-2.7665,-2.7664,-2.7658,-2.7659,-2.7676,-2.7672,-2.7662,-2.766,-2.7662,-2.767,-2.7675,-2.7676,-2.7703,-2.7676,-2.7677,-2.7678,-2.7678,-2.7754,-2.7755,0,0,0,0,0,0,-2.7644,-2.7646,-2.7677,-2.7678,-2.7651,-2.7659,-2.766,-2.7669,-2.7672,-2.7671,-2.7663,-2.7661,-2.7673,-2.7674,-2.7676,-2.7711,-2.7677,-2.7679,-2.7679,-2.7753,-2.7754,-2.7755,0,0,0,0,0,0,-2.7643,-2.7647,-2.7676,-2.7661,-2.7665,-2.7661,-2.7671,-2.767,-2.7675,-2.7673,-2.7672,-2.7669,-2.7672,-2.7674,-2.7695,-2.7711,-2.7679,-2.7681,-2.7751,-2.7753,-2.7755,-2.7782,0,0,0,0,0,0,-2.7642,-2.7647,-2.766,-2.7662,-2.7666,-2.7696,-2.7672,-2.7671,-2.7677,-2.7675,-2.7678,-2.7677,-2.7671,-2.7693,-2.7697,-2.7712,-2.7682,-2.775,-2.7752,-2.7754,-2.778,-2.7784,-2.7788,0,0,0,0,0,-2.7641,-2.7667,-2.766,-2.7664,-2.7681,-2.7697,-2.7699,-2.7692,-2.7679,-2.769,-2.7689,-2.7677,-2.7709,-2.7696,-2.77,-2.7716,-2.7749,-2.7751,-2.7754,-2.7778,-2.7783,-2.7788,0,0,0,0,0,0,-2.7667,-2.7667,-2.766,-2.7688,-2.7693,-2.7693,-2.7708,-2.7699,-2.7708,-2.7705,-2.7695,-2.7696,-2.7719,-2.772,-2.7705,-2.7745,-2.7727,-2.773,-2.7743,-2.7749,-2.7753,-2.7752,-2.7683,0,0,0,0,0,-2.7676,-2.769,-2.7689,-2.7714,-2.7716,-2.7712,-2.7719,-2.7713,-2.7717,-2.7719,-2.7719,-2.7724,-2.7735,-2.7742,-2.7752,-2.778,-2.7779,-2.7793,-2.7797,-2.7801,-2.7804,-2.7816,-2.7822,-2.7764,-2.7764,-2.7764,0,0,-2.7694,-2.7696,-2.7706,-2.7719,-2.7722,-2.7735,-2.7714,-2.773,-2.7739,-2.7722,-2.7741,-2.7741,-2.7746,-2.777,-2.7781,-2.7771,-2.782,-2.7804,-2.7807,-2.7808,-2.782,-2.7825,-2.783,-2.7765,-2.7765,-2.7765,0,0,-2.7735,-2.7739,-2.7758,-2.7762,-2.7766,-2.7763,-2.7768,-2.777,-2.7769,-2.7789,-2.7775,-2.7786,-2.7806,-2.7809,-2.7813,-2.7853,-2.7842,-2.7856,-2.7879,-2.7892,-2.7896,-2.79,-2.7913,-2.7918,-2.7859,-2.7859,-2.786,0,-2.7757,-2.7777,-2.777,-2.7785,-2.7791,-2.7776,-2.7795,-2.7798,-2.7806,-2.781,-2.78,-2.7822,-2.7824,-2.7848,-2.7858,-2.7862,-2.7866,-2.7856,-2.7896,-2.79,-2.7904,-2.7916,-2.792,-2.7861,-2.7861,-2.7861,-2.7861,0,-2.7804,-2.7818,-2.7833,-2.784,-2.7847,-2.7865,-2.7859,-2.7867,-2.786,-2.7858,-2.7877,-2.7879,-2.7888,-2.7893,-2.7887,-2.7916,-2.7909,-2.7898,-2.7879,-2.7911,-2.7922,-2.7926,-2.7863,-2.7863,-2.7862,-2.7862,0,0,-2.7861,-2.7863,-2.7868,-2.787,-2.7874,-2.7884,-2.7901,-2.791,-2.7916,-2.7922,-2.7934,-2.795,-2.7939,-2.7944,-2.7937,-2.7949,-2.7978,-2.7936,-2.7936,-2.7942,-2.8007,-2.8015,-2.802,-2.7971,-2.7972,-2.7973,-2.8006,0,-2.7899,-2.7927,-2.792,-2.7947,-2.7959,-2.7944,-2.7958,-2.7961,-2.7959,-2.7968,-2.7965,-2.7976,-2.7962,-2.7964,-2.7975,-2.7972,-2.7991,-2.797,-2.7981,-2.7982,-2.7979,-2.8026,-2.8035,-2.8066,-2.8011,-2.8012,-2.8012,0,-2.7948,-2.7955,-2.7983,-2.7983,-2.7987,-2.8,-2.8006,-2.8016,-2.8019,-2.8016,-2.8021,-2.8012,-2.8027,-2.8009,-2.8028,-2.8014,-2.8018,-2.8017,-2.8018,-2.8018,-2.7998,-2.8025,-2.8077,-2.8081,-2.8019,-2.8019,-2.8018,0,-2.7984,-2.8001,-2.8019,-2.8022,-2.8023,-2.8031,-2.8032,-2.8034,-2.8039,-2.8045,-2.8048,-2.8055,-2.8059,-2.8065,-2.8058,-2.8046,-2.8078,-2.806,-2.8075,-2.8075,-2.8081,-2.8081,-2.8132,-2.8087,-2.8087,-2.8087,-2.8086,0,-2.8027,-2.8044,-2.8035,-2.8046,-2.8065,-2.8056,-2.8074,-2.8073,-2.8075,-2.8085,-2.8073,-2.8082,-2.8073,-2.8082,-2.8077,-2.8092,-2.8095,-2.8092,-2.809,-2.8092,-2.8092,-2.8094,-2.8091,-2.8088,-2.8088,-2.8087,-2.8087,0,-2.807,-2.8065,-2.8084,-2.8082,-2.8082,-2.8096,-2.8095,-2.8104,-2.8101,-2.8114,-2.8116,-2.8111,-2.812,-2.8114,-2.8124,-2.812,-2.814,-2.8136,-2.8139,-2.8137,-2.8152,-2.815,-2.8205,-2.8211,-2.8164,-2.8164,-2.8165,0,-2.8097,-2.811,-2.811,-2.8115,-2.8117,-2.8126,-2.8131,-2.8123,-2.8128,-2.8132,-2.8141,-2.8149,-2.8155,-2.817,-2.8167,-2.8174,-2.8169,-2.8187,-2.817,-2.8171,-2.8167,-2.8165,-2.8166,-2.8191,-2.8191,-2.8192,-2.8192,0,-2.8144,-2.8141,-2.8148,-2.8155,-2.8161,-2.8165,-2.8169,-2.8174,-2.8166,-2.8172,-2.8182,-2.8186,-2.8195,-2.8203,-2.8209,-2.8209,-2.8198,-2.8198,-2.8201,-2.8203,-2.8203,-2.8201,-2.8147,-2.8196,-2.8196,-2.8196,-2.8195,-2.8195,-2.8179,-2.8189,-2.819,-2.8198,-2.82,-2.8203,-2.8212,-2.8209,-2.8216,-2.8223,-2.8218,-2.8228,-2.8229,-2.8235,-2.8237,-2.8244,-2.8236,-2.8242,-2.8243,-2.8244,-2.8246,-2.8203,-2.8245,-2.8245,-2.8245,-2.8245,-2.8245,0,-2.8224,-2.8224,-2.8232,-2.8236,-2.8243,-2.8233,-2.8236,-2.8242,-2.8251,-2.8253,-2.8259,-2.8268,-2.8275,-2.8273,-2.8279,-2.8285,-2.8281,-2.8287,-2.8286,-2.8285,-2.8253,-2.8248,-2.829,-2.829,-2.829,-2.829,-2.829,-2.829,-2.8248,-2.8264,-2.826,-2.8276,-2.8275,-2.8285,-2.8287,-2.829,-2.8291,-2.8302,-2.8308,-2.8306,-2.8306,-2.8311,-2.8317,-2.8316,-2.8318,-2.8326,-2.8323,-2.8292,-2.8288,-2.8284,-2.8279,-2.8327,-2.8327,-2.8354,-2.8355,-2.8355]}]]